Regional Weather Roundup
Issued by NWS

Home | Current Version | Previous Version | Graphics & Text | Print | Product List | Glossary On
Versions: 1 2 3 4 5 6 7 8 9 10 11 12 13 14 15 16 17 18 19 20 21 22 23 24 25 26 27 28 29 30 31 32 33 34 35 36 37 38 39 40 41 42 43 44 45 46 47 48 49 50
091
ASUS43 KIND 131809
RWRIN

WEATHER ROUNDUP FOR INDIANA
NATIONAL WEATHER SERVICE INDIANAPOLIS IN
100 PM EST SAT FEB 13 2016

NOTE: "FAIR" INDICATES FEW OR NO CLOUDS BELOW 12,000 FEET WITH NO
SIGNIFICANT WEATHER AND/OR OBSTRUCTIONS TO VISIBILITY.

* - STATION DOES NOT REPORT WEATHER SUCH AS PRECIPITATION OR FOG.

+ - STATION NOT QUALITY CONTROLLED BY THE NATIONAL WEATHER SERVICE.
    USE DATA WITH CAUTION...ESPECIALLY DEWPOINT AND RELATIVE
    HUMIDITY OBSERVATIONS.

INZ001>003-010>013-019-020-131900-
NORTHWEST INDIANA

CITY           SKY/WX    TMP DP  RH WIND       PRES   REMARKS
GARY /AIRPORT/ MOSUNNY   16 -13  27 W14       30.60S WCI   1
KNOX *+        MOSUNNY   12   0  57 NW10G24   30.57R WCI  -1
LA PORTE +     CLOUDY    14   5  68 NW9G20    30.56S HAZE    WCI   2
6HR MIN TEMP:  11; 6HR MAX TEMP:  14;

MICHIGAN CITY+ CLOUDY    12   3  67 NW10G16   30.57S WCI  -1
MONTICELLO +   SUNNY     15 -11  31 W9        30.58S WCI   3
6HR MIN TEMP:   4; 6HR MAX TEMP:  15;

RENSSELAER +   SUNNY     18 -11  27 NW10G16   30.58F WCI   6
VALPARAISO     MOSUNNY   13  -2  51 N10G17    30.56S WCI   0
6HR MIN TEMP:   4; 6HR MAX TEMP:  14; 6HR PCP: TRACE;


$$

LMZ046-743>745-131900-
SOUTHERN LAKE MICHIGAN

STATION/POSITION TIME  TEMP    WIND        PRES    WAVE
                       AIR SEA DIR/SP/G            HT
                 (UTC) (F)     (DEG/KT/KT) (MB)    (FT)
BURNS HARBOR     1700   11     330/  8/ 16 1035.9R
MICHIGAN CITY    1700   12     280/ 17/ 19   N/A

$$

INZ004-005-014>016-021>024-131900-
NORTH CENTRAL INDIANA

CITY           SKY/WX    TMP DP  RH WIND       PRES   REMARKS
ELKHART        LGT SNOW N/A N/A N/A MISG      30.51S VSB 1
GOSHEN         HVY SNOW  13   8  81 W16       30.49S VSB 1/4 WCI  -3
6HR MIN TEMP:   1; 6HR MAX TEMP:  14; 6HR PCP: TRACE;

LOGANSPORT +   SUNNY     16  -4  41 NW8       30.56F WCI   5
PERU/GRISSOM   MOSUNNY   15   2  55 NW14      30.53S WCI   0
6HR MIN TEMP:   6; 6HR MAX TEMP:  15;

ROCHESTER +    SUNNY     18  -4  38 W12G21    30.54S WCI   5
SOUTH BEND     SNOW      12   8  84 W16       30.52F VSB 1/2 WCI  -5
6HR MIN TEMP:   9; 6HR MAX TEMP:  13; 6HR PCP:  0.04;

WARSAW +       MOSUNNY   14   7  73 W17G25    30.51S WCI  -3

$$

INZ006>009-017-018-025>027-131900-
NORTHEAST INDIANA

CITY           SKY/WX    TMP DP  RH WIND       PRES   REMARKS
ANGOLA *+      CLOUDY    14   5  67 NW8       30.44F WCI   3
AUBURN +       PTSUNNY   18   7  62 W14       30.48F WCI   4
FORT WAYNE     PTSUNNY   15   5  64 W17G23    30.51S WCI  -1
6HR MIN TEMP:   0; 6HR MAX TEMP:  15;

HUNTINGTON +   MOSUNNY   13  -2  51 NW10      30.52S WCI   0
6HR MIN TEMP:   0; 6HR MAX TEMP:  14;


$$

INZ028-029-035-036-043>045-051>053-131900-
WEST CENTRAL INDIANA

CITY           SKY/WX    TMP DP  RH WIND       PRES   REMARKS
CRAWFORDSVL +  SUNNY     13  -8  40 NW7       30.57F WCI   2
6HR MIN TEMP:   3; 6HR MAX TEMP:  13;

GREENCASTLE +  SUNNY     16 -13  27 W3        30.56F
LAFAYETTE      SUNNY     15  -6  39 VRB7      30.59F WCI   5
6HR MIN TEMP:   4; 6HR MAX TEMP:  15;

TERRE HAUTE    SUNNY     16  -3  43 N12       30.61F WCI   3
6HR MIN TEMP:   7; 6HR MAX TEMP:  16;


$$

INZ030>032-037>040-046>048-054>057-064-065-131900-
CENTRAL INDIANA

CITY           SKY/WX    TMP DP  RH WIND       PRES   REMARKS
ANDERSON       PTSUNNY   16   3  57 W12G23    30.54F WCI   3
FISHERS *+     MOSUNNY   18   3  53 W9        30.55F WCI   6
FRANKFORT +    SUNNY     17 -20  18 W13       30.57F WCI   4
6HR MIN TEMP:   5; 6HR MAX TEMP:  17;

GREENWOOD *+   SUNNY     18   3  53 W8        30.56F WCI   7
INDIANAPOLIS   MOSUNNY   18  -4  37 W10       30.55F WCI   6
6HR MIN TEMP:   7; 6HR MAX TEMP:  18;

-EAGLE CREEK   SUNNY     16  -3  43 NW9       30.55F WCI   4
6HR MIN TEMP:   7; 6HR MAX TEMP:  16;

KOKOMO *+      MOSUNNY   16   1  53 NW13      30.54F WCI   2
6HR MIN TEMP:   7; 6HR MAX TEMP:  16;

MARION +       MOSUNNY   14  -4  43 NW12      30.54F WCI   1
MT COMFORT *+  PTSUNNY   16   0  48 W10       30.54F WCI   3
SHELBYVILLE    PTSUNNY   17   2  51 W9        30.55F WCI   6
6HR MIN TEMP:   8; 6HR MAX TEMP:  18;

ZIONSVILLE +   SUNNY     15  -2  46 SW8G20    30.55F WCI   4
6HR MIN TEMP:   5; 6HR MAX TEMP:  15;


$$

INZ033-034-041-042-049-050-058-059-131900-
EAST CENTRAL INDIANA

CITY           SKY/WX    TMP DP  RH WIND       PRES   REMARKS
MUNCIE         MOSUNNY   15   2  56 NW13      30.52F WCI   1
6HR MIN TEMP:   5; 6HR MAX TEMP:  15;


$$

INZ060-061-067>069-081>083-085>088-131900-
SOUTHWEST INDIANA

CITY           SKY/WX    TMP DP  RH WIND       PRES   REMARKS
EVANSVILLE     SUNNY     23   2  40 N10G17    30.62F WCI  12
6HR MIN TEMP:  15; 6HR MAX TEMP:  24;

HUNTINGBURG *+ SUNNY     21   1  42 N7        30.60F WCI  13
6HR MIN TEMP:  12; 6HR MAX TEMP:  21;

WASHINGTON +   SUNNY     19  -4  34 N7        30.60F WCI  10
6HR MIN TEMP:  11; 6HR MAX TEMP:  20;


$$

INZ062-063-066-070>080-084-089>092-131900-
SOUTH CENTRAL AND SOUTHEAST INDIANA

CITY           SKY/WX    TMP DP  RH WIND       PRES   REMARKS
BEDFORD +      SUNNY     19   0  42 CALM      30.56F
BLOOMINGTON    SUNNY     17  -2  43 N6        30.55F WCI   9
6HR MIN TEMP:   7; 6HR MAX TEMP:  19;

MADISON *+     MOSUNNY   19   1  45 N5        30.57F WCI  13
NORTH VERNON + MOSUNNY   18   1  49 CALM      30.57F
SEYMOUR +      SUNNY     23   1  39 CALM      30.57F

$$





USA.gov is the U.S. government's official web portal to all federal, state and local government web resources and services.